Flag for India Weather past 2 weeks in Giridih, Jharkhand, India

Now
90 °F

Passing clouds.


Feels Like: 92 °F
Forecast: 81 / 101 °F
Wind: No wind

Location: Lucknow / Amausi

Current Time: May 30, 2015 at 4:37:52 AM

Latest Report: May 30, 2015 at 3:00 AM


Visibility: 2 mi

Pressure: 29.56 "Hg

Humidity: 46%

Dew point: 66 °F

Location of GiridihLocation

Historic Weather in Giridih — Graph

°F

Giridih temperature yesterday

Maximum temperature yesterday: 115 °F (at 3:30 PM)
Minimum temperature yesterday: 79 °F (at 5:30 AM)
Average temperature yesterday: 100 °F

Past Weeks' High & Low Weather Summary

 TemperatureHumidityPressure
High115 °F (May 23, 3:00 PM)75% (May 26, 8:00 AM)29.80 "Hg (May 26, 8:00 AM)
Low77 °F (May 16, 8:00 AM)13% (May 22, 2:30 PM)29.42 "Hg (May 22, 4:30 PM)
Average96 °F40%29.56 "Hg
* Reported May 15 3:00 AM — May 30 3:00 AM, Giridih, Weather by CustomWeather, © 2015

Note: Actual official high and low records may vary slightly from our data, if they occured in-between our weather recording intervals... More about our weather records

Advertising

Giridih weather history for previous 24 hours

 ConditionsComfort  
Time TempWeatherWind HumidityBarometerVisibility
3:00 AM
Sat, May 30
90 °FPassing clouds.No wind46%29.56 "Hg2 mi
2:00 AM90 °FPassing clouds.No wind49%29.56 "Hg2 mi
1:00 AM90 °FPassing clouds.No wind49%29.56 "Hg2 mi
12:00 AM90 °FHaze.No wind49%29.56 "Hg2 mi
10:00 PM
Fri, May 29
97 °FHaze.No wind37%29.59 "Hg2 mi
9:00 PM97 °FHaze.No wind37%29.56 "Hg2 mi
8:30 PM99 °FHaze.No wind33%29.56 "Hg2 mi
8:00 PM100 °FHaze.2 mph35%29.53 "Hg2 mi
7:30 PM102 °FHaze.2 mph31%29.53 "Hg3 mi
7:00 PM104 °FDuststorm.2 mph28%29.53 "Hg3 mi
6:30 PM108 °FDuststorm.2 mph25%29.53 "Hg3 mi
6:00 PM111 °FDuststorm.3 mph21%29.53 "Hg3 mi
5:30 PM113 °FDuststorm.3 mph19%29.50 "Hg3 mi
5:00 PM113 °FDuststorm.3 mph17%29.50 "Hg3 mi
4:30 PM113 °FDuststorm.3 mph17%29.50 "Hg3 mi
4:00 PM115 °FDuststorm.5 mph16%29.53 "Hg3 mi
3:30 PM115 °FDuststorm.7 mph16%29.53 "Hg3 mi
3:00 PM113 °FDuststorm.9 mph17%29.53 "Hg3 mi
1:30 PM113 °FDuststorm.8 mph16%29.56 "Hg3 mi
1:00 PM111 °FDuststorm.7 mph20%29.59 "Hg2 mi
12:30 PM109 °FDuststorm.7 mph21%29.59 "Hg2 mi
12:00 PM108 °FHaze.7 mph22%29.59 "Hg2 mi
11:30 AM108 °FDuststorm.N/A18%29.62 "Hg2 mi
11:00 AM106 °FDuststorm.2 mph23%29.62 "Hg2 mi
10:30 AM106 °FDuststorm.2 mph22%29.62 "Hg2 mi
10:00 AM104 °FHaze.2 mph23%29.62 "Hg2 mi
9:30 AM102 °FHaze.No wind24%29.62 "Hg2 mi
8:30 AM99 °FHaze.No wind33%29.59 "Hg2 mi
8:00 AM95 °FHaze.No wind34%29.59 "Hg2 mi
7:30 AM91 °FHaze.No wind36%29.59 "Hg2 mi
7:00 AM88 °FHaze.No wind40%29.56 "Hg2 mi
6:30 AM84 °FHaze.No wind45%29.56 "Hg2 mi
6:00 AM81 °FHaze.No wind54%29.53 "Hg2 mi
5:30 AM79 °FHaze.No wind58%29.53 "Hg2 mi
5:00 AM81 °FHaze.No wind54%29.53 "Hg2 mi
4:00 AM82 °FHaze.No wind48%29.53 "Hg2 mi
Weather by CustomWeather, © 2015

See weather overviewHow to use our weather pages